Location: Andiroba
(19.8650°S, 43.9258°W)
Time: 23:32:53
(UTC+00:00)

Cosmos 1447 Rocket - Pass Details

Date: 19 September 2024
Orbit: 954 x 995 km, 82.9° (Epoch: 14 October)

Event Time Altitude Azimuth Distance (km) Brightness Sun altitude
Rises 07:36:07 0° 181° (S) 3,685 7.6 -17.6°
Reaches altitude 10° 07:38:41 10° 178° (S) 2,726 6.9 -17.0°
Maximum altitude 07:44:53 68° 95° (E) 1,036 4.9 -15.6°
Drops below altitude 10° 07:50:58 10° 12° (NNE) 2,678 6.9 -14.1°
Sets 07:53:27 0° 10° (N) 3,614 7.6 -13.6°
